| time (UTC) | temp F | wind direction | speed knots | gust knots | rain 1hr in | rain 24hr in | rain mn in | humidity % | barometer mb |
| 20260906031320 | 74 | 260 | 0.9 | 1.7 | 0.00 | 0.00 | 0.00 | 64 | 1011.1 |
| 20260906030716 | 74 | 276 | 0.9 | 0.9 | 0.00 | 0.00 | 0.00 | 66 | 1011.1 |
| 20260906030117 | 74 | 269 | 0.9 | 0.9 | 0.00 | 0.00 | 0.00 | 66 | 1010.7 |
| 20260906025520 | 75 | 241 | 0.9 | 1.7 | 0.00 | 0.00 | 0.00 | 65 | 1010.7 |
| 20260906024315 | 75 | 225 | 2.6 | 2.6 | 0.00 | 0.00 | 0.00 | 59 | 1011.1 |
| 20260906023115 | 76 | 233 | 1.7 | 1.7 | 0.00 | 0.00 | 0.00 | 52 | 1010.7 |
| 20260906022517 | 76 | 281 | 1.7 | 1.7 | 0.00 | 0.00 | 0.00 | 49 | 1011.1 |
| 20260906021919 | 76 | 233 | 1.7 | 2.6 | 0.00 | 0.00 | 0.00 | 47 | 1011.1 |
| 20260906021317 | 77 | 281 | 2.6 | 2.6 | 0.00 | 0.00 | 0.00 | 45 | 1010.7 |
| 20260906020715 | 77 | 266 | 3.5 | 3.5 | 0.00 | 0.00 | 0.00 | 46 | 1010.7 |
| 20260906020120 | 77 | 269 | 4.3 | 5.2 | 0.00 | 0.00 | 0.00 | 46 | 1011.1 |
| 20260906015516 | 77 | 300 | 2.6 | 3.5 | 0.00 | 0.00 | 0.00 | 46 | 1011.1 |
| 20260906014917 | 78 | 220 | 3.5 | 5.2 | 0.00 | 0.00 | 0.00 | 44 | 1011.1 |
| 20260906014323 | 78 | 297 | 2.6 | 3.5 | 0.00 | 0.00 | 0.00 | 45 | 1011.1 |
| 20260906013717 | 78 | 273 | 4.3 | 5.2 | 0.00 | 0.00 | 0.00 | 44 | 1011.1 |
| 20260906013116 | 78 | 258 | 5.2 | 6.1 | 0.00 | 0.00 | 0.00 | 49 | 1011.1 |
| 20260906012520 | 78 | 202 | 4.3 | 5.2 | 0.00 | 0.00 | 0.00 | 50 | 1011.1 |
| 20260906011915 | 78 | 213 | 4.3 | 6.1 | 0.00 | 0.00 | 0.00 | 52 | 1011.1 |
| 20260906011317 | 78 | 254 | 4.3 | 6.1 | 0.00 | 0.00 | 0.00 | 48 | 1011.1 |
| 20260906010722 | 79 | 235 | 3.5 | 3.5 | 0.00 | 0.00 | 0.00 | 47 | 1011.1 |
| 20260906010118 | 78 | 268 | 3.5 | 5.2 | 0.00 | 0.00 | 0.00 | 47 | 1011.1 |
| 20260906005516 | 79 | 239 | 5.2 | 7.0 | 0.00 | 0.00 | 0.00 | 47 | 1011.1 |
| 20260906004919 | 79 | 273 | 5.2 | 6.1 | 0.00 | 0.00 | 0.00 | 48 | 1011.1 |
| 20260906004318 | 80 | 277 | 3.5 | 3.5 | 0.00 | 0.00 | 0.00 | 47 | 1011.1 |
| 20260906003717 | 79 | 272 | 3.5 | 5.2 | 0.00 | 0.00 | 0.00 | 47 | 1011.1 |
| 20260906003118 | 79 | 278 | 4.3 | 5.2 | 0.00 | 0.00 | 0.00 | 49 | 1010.7 |
| 20260906002517 | 79 | 249 | 5.2 | 7.0 | 0.00 | 0.00 | 0.00 | 48 | 1011.1 |
| 20260906001916 | 80 | 231 | 4.3 | 6.1 | 0.00 | 0.00 | 0.00 | 51 | 1011.1 |
| 20260906000716 | 79 | 248 | 7.0 | 7.8 | 0.00 | 0.00 | 0.00 | 52 | 1011.1 |
| 20260906000119 | 80 | 239 | 3.5 | 6.1 | 0.00 | 0.00 | 0.00 | 50 | 1011.1 |
| 20260905234918 | 80 | 249 | 5.2 | 7.8 | 0.00 | 0.00 | 0.00 | 50 | 1010.7 |
| 20260905234317 | 80 | 253 | 3.5 | 3.5 | 0.00 | 0.00 | 0.00 | 53 | 1010.7 |
| 20260905233117 | 81 | 206 | 6.1 | 7.0 | 0.00 | 0.00 | 0.00 | 51 | 1010.7 |
| 20260905232517 | 81 | 260 | 5.2 | 7.0 | 0.00 | 0.00 | 0.00 | 52 | 1011.1 |
| 20260905231919 | 81 | 262 | 7.8 | 8.7 | 0.00 | 0.00 | 0.00 | 45 | 1010.7 |
| 20260905231318 | 80 | 231 | 5.2 | 7.0 | 0.00 | 0.00 | 0.00 | 52 | 1011.1 |
| 20260905230716 | 81 | 230 | 6.1 | 7.8 | 0.00 | 0.00 | 0.00 | 51 | 1011.1 |
| 20260905230121 | 81 | 258 | 7.0 | 8.7 | 0.00 | 0.00 | 0.00 | 50 | 1011.1 |
| 20260905225517 | 82 | 248 | 5.2 | 6.1 | 0.00 | 0.00 | 0.00 | 52 | 1011.1 |
| 20260905224918 | 83 | 239 | 7.8 | 9.6 | 0.00 | 0.00 | 0.00 | 47 | 1011.1 |
| 20260905224320 | 82 | 290 | 3.5 | 5.2 | 0.00 | 0.00 | 0.00 | 51 | 1011.1 |
| 20260905223719 | 81 | 214 | 5.2 | 6.1 | 0.00 | 0.00 | 0.00 | 44 | 1011.4 |
| 20260905223119 | 82 | 223 | 6.1 | 7.0 | 0.00 | 0.00 | 0.00 | 49 | 1011.4 |
| 20260905222521 | 83 | 246 | 7.0 | 7.0 | 0.00 | 0.00 | 0.00 | 44 | 1011.4 |
| 20260905221916 | 83 | 215 | 3.5 | 5.2 | 0.00 | 0.00 | 0.00 | 44 | 1011.4 |
| 20260905221317 | 82 | 214 | 8.7 | 9.6 | 0.00 | 0.00 | 0.00 | 43 | 1011.4 |
| 20260905220721 | 83 | 196 | 7.8 | 8.7 | 0.00 | 0.00 | 0.00 | 43 | 1011.8 |
| 20260905220118 | 83 | 231 | 7.8 | 8.7 | 0.00 | 0.00 | 0.00 | 42 | 1011.8 |
| 20260905215516 | 84 | 208 | 3.5 | 7.0 | 0.00 | 0.00 | 0.00 | 39 | 1011.4 |
| 20260905214921 | 84 | 224 | 6.1 | 8.7 | 0.00 | 0.00 | 0.00 | 42 | 1011.4 |
| 20260905214317 | 84 | 224 | 7.8 | 8.7 | 0.00 | 0.00 | 0.00 | 42 | 1011.8 |
| 20260905213717 | 84 | 288 | 2.6 | 2.6 | 0.00 | 0.00 | 0.00 | 41 | 1011.8 |
| 20260905213119 | 84 | 230 | 5.2 | 7.0 | 0.00 | 0.00 | 0.00 | 41 | 1011.8 |
| 20260905212517 | 83 | 264 | 5.2 | 6.1 | 0.00 | 0.00 | 0.00 | 44 | 1011.8 |
| 20260905211915 | 83 | 219 | 6.1 | 7.0 | 0.00 | 0.00 | 0.00 | 42 | 1011.8 |
| 20260905211321 | 81 | 279 | 3.5 | 3.5 | 0.00 | 0.00 | 0.00 | 50 | 1012.1 |
| 20260905210716 | 82 | 271 | 3.5 | 6.1 | 0.00 | 0.00 | 0.00 | 52 | 1012.1 |
| 20260905210116 | 81 | 246 | 5.2 | 6.1 | 0.00 | 0.00 | 0.00 | 51 | 1012.1 |
| 20260905205518 | 81 | 241 | 7.8 | 7.8 | 0.00 | 0.00 | 0.00 | 53 | 1012.1 |
| 20260905204917 | 80 | 197 | 6.1 | 7.8 | 0.00 | 0.00 | 0.00 | 56 | 1012.1 |
| 20260905204317 | 80 | 215 | 7.0 | 7.8 | 0.00 | 0.00 | 0.00 | 54 | 1012.4 |
| 20260905203719 | 80 | 264 | 6.1 | 7.0 | 0.00 | 0.00 | 0.00 | 58 | 1012.4 |
| 20260905202516 | 81 | 234 | 6.1 | 7.0 | 0.00 | 0.00 | 0.00 | 56 | 1012.4 |
| 20260905201918 | 81 | 209 | 5.2 | 6.1 | 0.00 | 0.00 | 0.00 | 54 | 1012.4 |
| 20260905201318 | 81 | 263 | 2.6 | 3.5 | 0.00 | 0.00 | 0.00 | 56 | 1012.4 |
| 20260905200716 | 81 | 211 | 5.2 | 7.0 | 0.00 | 0.00 | 0.00 | 56 | 1012.4 |
| 20260905200121 | 81 | 272 | 5.2 | 6.1 | 0.00 | 0.00 | 0.00 | 57 | 1012.4 |
| 20260905195517 | 81 | 233 | 6.1 | 7.8 | 0.00 | 0.00 | 0.00 | 55 | 1012.4 |
| 20260905194917 | 80 | 243 | 3.5 | 5.2 | 0.00 | 0.00 | 0.00 | 57 | 1012.8 |
| 20260905193722 | 80 | 229 | 7.0 | 7.8 | 0.00 | 0.00 | 0.00 | 58 | 1012.8 |
| 20260905192520 | 80 | 261 | 5.2 | 6.1 | 0.00 | 0.00 | 0.00 | 59 | 1012.8 |
| 20260905191918 | 79 | 228 | 7.0 | 7.0 | 0.00 | 0.00 | 0.00 | 60 | 1012.8 |
| 20260905191317 | 79 | 228 | 5.2 | 6.1 | 0.00 | 0.00 | 0.00 | 60 | 1012.8 |
| 20260905190718 | 80 | 200 | 5.2 | 6.1 | 0.00 | 0.00 | 0.00 | 60 | 1013.1 |
| 20260905190118 | 80 | 210 | 2.6 | 3.5 | 0.00 | 0.00 | 0.00 | 61 | 1013.1 |
| 20260905185516 | 80 | 242 | 4.3 | 7.0 | 0.00 | 0.00 | 0.00 | 58 | 1013.1 |
| 20260905184921 | 79 | 242 | 4.3 | 5.2 | 0.00 | 0.00 | 0.00 | 58 | 1013.4 |
| 20260905184317 | 79 | 218 | 3.5 | 5.2 | 0.00 | 0.00 | 0.00 | 61 | 1013.4 |
| 20260905183718 | 78 | 61 | 3.5 | 3.5 | 0.00 | 0.00 | 0.00 | 64 | 1013.4 |
| 20260905183122 | 78 | 242 | 5.2 | 6.1 | 0.00 | 0.00 | 0.00 | 64 | 1013.4 |
| 20260905182517 | 77 | 216 | 4.3 | 5.2 | 0.00 | 0.00 | 0.00 | 64 | 1013.4 |
| 20260905181915 | 77 | 274 | 2.6 | 3.5 | 0.00 | 0.00 | 0.00 | 66 | 1013.4 |
| 20260905180717 | 78 | 228 | 7.8 | 8.7 | 0.00 | 0.00 | 0.00 | 62 | 1013.4 |
| 20260905180118 | 79 | 221 | 4.3 | 7.0 | 0.00 | 0.00 | 0.00 | 60 | 1013.4 |
| 20260905175519 | 81 | 161 | 4.3 | 5.2 | 0.00 | 0.00 | 0.00 | 47 | 1013.4 |
| 20260905174316 | 79 | 12 | 0.9 | 0.9 | 0.00 | 0.00 | 0.00 | 53 | 1013.4 |
| 20260905173723 | 79 | 191 | 0.9 | 1.7 | 0.00 | 0.00 | 0.00 | 54 | 1013.4 |
| 20260905173117 | 78 | 350 | 0.9 | 0.9 | 0.00 | 0.00 | 0.00 | 53 | 1013.4 |
| 20260905172517 | 78 | 154 | 2.6 | 2.6 | 0.00 | 0.00 | 0.00 | 54 | 1013.4 |
| 20260905171919 | 78 | 256 | 1.7 | 1.7 | 0.00 | 0.00 | 0.00 | 54 | 1013.4 |
| 20260905171320 | 76 | 189 | 3.5 | 3.5 | 0.00 | 0.00 | 0.00 | 58 | 1013.4 |
| 20260905170716 | 77 | 183 | 5.2 | 6.1 | 0.00 | 0.00 | 0.00 | 56 | 1013.4 |
| 20260905170121 | 77 | 241 | 0.9 | 0.9 | 0.00 | 0.00 | 0.00 | 55 | 1013.4 |
| 20260905165516 | 78 | 161 | 2.6 | 2.6 | 0.00 | 0.00 | 0.00 | 57 | 1013.4 |
| 20260905164917 | 77 | 115 | 2.6 | 2.6 | 0.00 | 0.00 | 0.00 | 56 | 1013.1 |
| 20260905164319 | 76 | 158 | 0.9 | 0.9 | 0.00 | 0.00 | 0.00 | 60 | 1013.1 |
| 20260905163717 | 76 | 153 | 1.7 | 1.7 | 0.00 | 0.00 | 0.00 | 59 | 1013.1 |
| 20260905163117 | 76 | 41 | 0.9 | 0.9 | 0.00 | 0.00 | 0.00 | 61 | 1013.1 |
| 20260905161916 | 75 | 140 | 0.9 | 1.7 | 0.00 | 0.00 | 0.00 | 62 | 1013.1 |
| 20260905160719 | 75 | 80 | 2.6 | 2.6 | 0.00 | 0.00 | 0.00 | 65 | 1013.1 |
| 20260905160118 | 75 | 92 | 2.6 | 2.6 | 0.00 | 0.00 | 0.00 | 66 | 1012.8 |
| 20260905155517 | 74 | 27 | 0.0 | 0.9 | 0.00 | 0.00 | 0.00 | 69 | 1013.1 |
| 20260905154316 | 73 | 48 | 1.7 | 2.6 | 0.00 | 0.00 | 0.00 | 73 | 1013.1 |
| 20260905153123 | 73 | 356 | 0.0 | 0.0 | 0.00 | 0.00 | 0.00 | 74 | 1012.8 |
| 20260905152517 | 72 | 40 | 0.9 | 1.7 | 0.00 | 0.00 | 0.00 | 75 | 1012.8 |
| 20260905151918 | 72 | 62 | 0.0 | 0.0 | 0.00 | 0.00 | 0.00 | 77 | 1012.8 |
| 20260905151320 | 71 | 71 | 0.9 | 0.9 | 0.00 | 0.00 | 0.00 | 77 | 1013.1 |
| 20260905150716 | 70 | 33 | 0.9 | 0.9 | 0.00 | 0.00 | 0.00 | 81 | 1013.1 |
| 20260905150117 | 68 | 357 | 0.0 | 0.0 | 0.00 | 0.00 | 0.00 | 82 | 1012.8 |
| 20260905145520 | 67 | 356 | 0.0 | 0.0 | 0.00 | 0.00 | 0.00 | 84 | 1012.8 |
| 20260905144917 | 67 | 356 | 0.0 | 0.0 | 0.00 | 0.00 | 0.00 | 84 | 1012.8 |
| 20260905144319 | 66 | 356 | 0.0 | 0.0 | 0.00 | 0.00 | 0.00 | 85 | 1012.8 |
| 20260905143720 | 66 | 356 | 0.9 | 0.9 | 0.00 | 0.00 | 0.00 | 85 | 1012.8 |
| 20260905143119 | 65 | 356 | 0.9 | 0.9 | 0.00 | 0.00 | 0.00 | 86 | 1012.4 |
| 20260905142518 | 65 | 355 | 0.0 | 0.0 | 0.00 | 0.00 | 0.00 | 87 | 1012.4 |
| 20260905141919 | 65 | 354 | 0.0 | 0.0 | 0.00 | 0.00 | 0.00 | 88 | 1012.4 |
| 20260905141318 | 64 | 345 | 0.9 | 0.9 | 0.00 | 0.00 | 0.00 | 88 | 1012.4 |
| 20260905140716 | 63 | 339 | 0.0 | 0.0 | 0.00 | 0.00 | 0.00 | 88 | 1012.4 |
| 20260905140121 | 63 | 336 | 0.9 | 0.9 | 0.00 | 0.00 | 0.00 | 88 | 1012.4 |
| 20260905135517 | 63 | 335 | 0.0 | 0.9 | 0.00 | 0.00 | 0.00 | 88 | 1012.4 |
| 20260905134917 | 64 | 335 | 0.0 | 0.0 | 0.00 | 0.00 | 0.00 | 88 | 1012.4 |
| 20260905133717 | 64 | 1 | 0.9 | 0.9 | 0.00 | 0.00 | 0.00 | 88 | 1012.1 |
| 20260905132520 | 64 | 358 | 1.7 | 1.7 | 0.00 | 0.00 | 0.00 | 89 | 1011.8 |
| 20260905131916 | 64 | 13 | 1.7 | 1.7 | 0.00 | 0.00 | 0.00 | 89 | 1011.8 |
| 20260905131317 | 64 | 3 | 0.9 | 1.7 | 0.00 | 0.00 | 0.00 | 88 | 1011.8 |
| 20260905130720 | 64 | 352 | 0.0 | 0.9 | 0.00 | 0.00 | 0.00 | 89 | 1011.8 |
| 20260905130119 | 64 | 338 | 0.9 | 0.9 | 0.00 | 0.00 | 0.00 | 88 | 1011.8 |
| 20260905125517 | 64 | 343 | 0.0 | 0.0 | 0.00 | 0.00 | 0.00 | 88 | 1011.8 |
| 20260905124920 | 64 | 340 | 0.0 | 0.9 | 0.00 | 0.00 | 0.00 | 88 | 1011.8 |
| 20260905124318 | 64 | 336 | 0.0 | 0.0 | 0.00 | 0.00 | 0.00 | 88 | 1011.8 |
| 20260905123718 | 64 | 335 | 0.9 | 0.9 | 0.00 | 0.00 | 0.00 | 88 | 1011.8 |
| 20260905123121 | 64 | 349 | 0.9 | 0.9 | 0.00 | 0.00 | 0.00 | 88 | 1011.8 |
| 20260905122523 | 64 | 354 | 1.7 | 1.7 | 0.00 | 0.00 | 0.00 | 88 | 1011.8 |
| 20260905121324 | 64 | 14 | 1.7 | 1.7 | 0.00 | 0.00 | 0.00 | 88 | 1011.8 |
| 20260905120716 | 64 | 340 | 0.0 | 0.9 | 0.00 | 0.00 | 0.00 | 88 | 1011.8 |
| 20260905120117 | 64 | 340 | 0.0 | 0.0 | 0.00 | 0.00 | 0.00 | 88 | 1011.8 |
| 20260905114919 | 64 | 344 | 0.9 | 1.7 | 0.00 | 0.00 | 0.00 | 88 | 1011.8 |
| 20260905114317 | 64 | 325 | 0.9 | 0.9 | 0.00 | 0.00 | 0.00 | 88 | 1011.8 |
| 20260905113720 | 63 | 336 | 0.9 | 0.9 | 0.00 | 0.00 | 0.00 | 88 | 1011.8 |
| 20260905113116 | 63 | 338 | 0.0 | 0.0 | 0.00 | 0.00 | 0.00 | 88 | 1011.8 |
| 20260905111923 | 64 | 336 | 0.0 | 0.9 | 0.00 | 0.00 | 0.00 | 87 | 1011.8 |
| 20260905111318 | 64 | 332 | 0.9 | 0.9 | 0.00 | 0.00 | 0.00 | 87 | 1012.1 |
| 20260905110717 | 63 | 330 | 0.9 | 0.9 | 0.00 | 0.00 | 0.00 | 87 | 1012.1 |
| 20260905110120 | 64 | 334 | 0.9 | 1.7 | 0.00 | 0.00 | 0.00 | 87 | 1012.1 |
| 20260905105518 | 64 | 335 | 0.0 | 0.0 | 0.00 | 0.00 | 0.00 | 87 | 1012.1 |
| 20260905104917 | 64 | 335 | 0.0 | 0.0 | 0.00 | 0.00 | 0.00 | 87 | 1012.1 |
| 20260905104319 | 64 | 335 | 0.0 | 0.0 | 0.00 | 0.00 | 0.00 | 87 | 1012.1 |
| 20260905103120 | 64 | 333 | 0.9 | 0.9 | 0.00 | 0.00 | 0.00 | 87 | 1012.1 |
| 20260905102520 | 64 | 338 | 0.0 | 0.0 | 0.00 | 0.00 | 0.00 | 87 | 1012.1 |
| 20260905101916 | 64 | 346 | 0.0 | 0.0 | 0.00 | 0.00 | 0.00 | 86 | 1012.1 |
| 20260905101316 | 65 | 345 | 0.0 | 0.0 | 0.00 | 0.00 | 0.00 | 86 | 1012.1 |
| 20260905100118 | 65 | 334 | 0.0 | 0.0 | 0.00 | 0.00 | 0.00 | 86 | 1012.1 |
| 20260905095517 | 65 | 359 | 2.6 | 2.6 | 0.00 | 0.00 | 0.00 | 86 | 1012.1 |
| 20260905094924 | 65 | 16 | 2.6 | 2.6 | 0.00 | 0.00 | 0.00 | 85 | 1012.1 |
| 20260905093718 | 65 | 17 | 1.7 | 2.6 | 0.00 | 0.00 | 0.00 | 85 | 1012.1 |
| 20260905093121 | 65 | 16 | 1.7 | 1.7 | 0.00 | 0.00 | 0.00 | 85 | 1012.1 |
| 20260905091320 | 65 | 338 | 0.9 | 1.7 | 0.00 | 0.00 | 0.00 | 84 | 1012.1 |
| 20260905090716 | 65 | 333 | 0.9 | 1.7 | 0.00 | 0.00 | 0.00 | 84 | 1012.1 |
| 20260905090117 | 65 | 336 | 0.0 | 0.9 | 0.00 | 0.00 | 0.00 | 83 | 1012.1 |
| 20260905085520 | 65 | 341 | 0.0 | 0.9 | 0.00 | 0.00 | 0.00 | 83 | 1012.1 |
| 20260905084917 | 65 | 343 | 0.9 | 0.9 | 0.00 | 0.00 | 0.00 | 83 | 1012.1 |
| 20260905083116 | 66 | 337 | 0.9 | 0.9 | 0.00 | 0.00 | 0.00 | 83 | 1012.4 |
| 20260905082518 | 66 | 331 | 0.9 | 0.9 | 0.00 | 0.00 | 0.00 | 83 | 1012.4 |
| 20260905081919 | 66 | 330 | 0.9 | 0.9 | 0.00 | 0.00 | 0.00 | 82 | 1012.4 |
| 20260905081319 | 66 | 339 | 0.9 | 0.9 | 0.00 | 0.00 | 0.00 | 83 | 1012.4 |
| 20260905080718 | 67 | 353 | 0.0 | 0.9 | 0.00 | 0.00 | 0.00 | 83 | 1012.4 |
| 20260905080121 | 67 | 8 | 0.9 | 0.9 | 0.00 | 0.00 | 0.00 | 83 | 1012.4 |
| 20260905074918 | 67 | 350 | 0.9 | 0.9 | 0.00 | 0.00 | 0.00 | 82 | 1012.4 |
| 20260905073718 | 67 | 17 | 2.6 | 2.6 | 0.00 | 0.00 | 0.00 | 81 | 1012.1 |
| 20260905073118 | 67 | 21 | 1.7 | 1.7 | 0.00 | 0.00 | 0.00 | 81 | 1012.4 |
| 20260905072524 | 67 | 359 | 0.9 | 0.9 | 0.00 | 0.00 | 0.00 | 81 | 1012.1 |
| 20260905071919 | 67 | 352 | 0.9 | 0.9 | 0.00 | 0.00 | 0.00 | 80 | 1012.1 |
| 20260905071319 | 67 | 5 | 0.9 | 1.7 | 0.00 | 0.00 | 0.00 | 79 | 1012.1 |
| 20260905070720 | 67 | 336 | 0.9 | 0.9 | 0.00 | 0.00 | 0.00 | 79 | 1012.4 |
| 20260905070119 | 68 | 0 | 1.7 | 1.7 | 0.00 | 0.00 | 0.00 | 80 | 1012.1 |
| 20260905065517 | 67 | 6 | 1.7 | 1.7 | 0.00 | 0.00 | 0.00 | 78 | 1012.1 |
| 20260905064924 | 67 | 354 | 0.9 | 0.9 | 0.00 | 0.00 | 0.00 | 78 | 1012.1 |
| 20260905064318 | 67 | 359 | 0.9 | 0.9 | 0.00 | 0.00 | 0.00 | 78 | 1011.8 |
| 20260905063121 | 67 | 347 | 0.9 | 0.9 | 0.00 | 0.00 | 0.00 | 79 | 1012.1 |
| 20260905062518 | 67 | 351 | 0.9 | 0.9 | 0.00 | 0.00 | 0.00 | 79 | 1012.1 |
| 20260905060719 | 67 | 336 | 0.0 | 0.9 | 0.00 | 0.00 | 0.00 | 79 | 1012.1 |
| 20260905060120 | 67 | 349 | 0.9 | 0.9 | 0.00 | 0.00 | 0.00 | 79 | 1011.8 |
| 20260905054923 | 67 | 34 | 2.6 | 2.6 | 0.00 | 0.00 | 0.00 | 79 | 1012.1 |
| 20260905054318 | 67 | 341 | 0.0 | 0.0 | 0.00 | 0.00 | 0.00 | 79 | 1011.8 |
| 20260905053721 | 68 | 322 | 0.9 | 0.9 | 0.00 | 0.00 | 0.00 | 80 | 1012.1 |
| 20260905051920 | 68 | 12 | 1.7 | 1.7 | 0.00 | 0.00 | 0.00 | 82 | 1012.1 |
| 20260905051320 | 68 | 0 | 1.7 | 1.7 | 0.00 | 0.00 | 0.00 | 82 | 1012.1 |
| 20260905050122 | 68 | 336 | 0.9 | 0.9 | 0.00 | 0.00 | 0.00 | 83 | 1012.1 |
| 20260905045519 | 68 | 9 | 1.7 | 1.7 | 0.00 | 0.00 | 0.00 | 84 | 1011.8 |
| 20260905044918 | 67 | 335 | 0.9 | 0.9 | 0.00 | 0.00 | 0.00 | 84 | 1011.8 |
| 20260905043122 | 68 | 299 | 0.0 | 0.9 | 0.00 | 0.00 | 0.00 | 86 | 1011.8 |
| 20260905042521 | 68 | 299 | 0.0 | 0.9 | 0.00 | 0.00 | 0.00 | 86 | 1011.8 |
| 20260905041918 | 68 | 299 | 0.0 | 0.0 | 0.00 | 0.00 | 0.00 | 86 | 1011.8 |
| 20260905041321 | 69 | 295 | 1.7 | 1.7 | 0.00 | 0.00 | 0.00 | 86 | 1011.4 |
| 20260905040119 | 69 | 228 | 0.0 | 0.0 | 0.00 | 0.00 | 0.00 | 86 | 1011.4 |
| 20260905035516 | 69 | 227 | 1.7 | 1.7 | 0.00 | 0.00 | 0.00 | 86 | 1011.8 |
| 20260905034922 | 69 | 275 | 0.9 | 0.9 | 0.00 | 0.00 | 0.00 | 86 | 1011.4 |
| 20260905034318 | 69 | 285 | 0.9 | 1.7 | 0.00 | 0.00 | 0.00 | 85 | 1011.4 |
| 20260905033716 | 69 | 244 | 0.9 | 0.9 | 0.00 | 0.00 | 0.00 | 85 | 1011.1 |
| 20260905033121 | 69 | 261 | 0.0 | 0.9 | 0.00 | 0.00 | 0.00 | 85 | 1011.4 |
| 20260905032518 | 69 | 266 | 0.0 | 0.9 | 0.00 | 0.00 | 0.00 | 85 | 1011.1 |
| 20260905031916 | 69 | 226 | 0.9 | 1.7 | 0.00 | 0.00 | 0.00 | 84 | 1011.1 |